Regional Weather Roundup
Issued by NWS Kansas City/Pleasant Hill, MO

Home | Current Version | Previous Version | Graphics & Text | Print | Product List | Glossary Off
Versions: 1 2 3 4 5 6 7 8 9 10 11 12 13 14 15 16 17 18 19 20 21 22 23 24 25 26 27 28 29 30 31 32 33 34 35 36 37 38 39 40 41 42 43 44 45 46 47 48 49 50

000
ASUS43 KEAX 270510
RWREAX

WEATHER ROUNDUP FOR EASTERN KANSAS AND NORTHWEST MISSOURI
NATIONAL WEATHER SERVICE KANSAS CITY/PLEASANT HILL MO
1200 AM CDT THU JUL 27 2017

KSZ040-057-103>105-MOZ028-029-037-043-270600-
...KANSAS CITY METROPOLITAN AREA...

CITY           SKY/WX    TMP DP  RH WIND       PRES   REMARKS
K.C. INTL      CLOUDY    73  72  96 CALM      29.97S
K.C. DOWNTOWN  LGT RAIN  74  74 100 E3        29.95F
LEES SUMMIT    TSTM      74  73  97 SW6       29.95F
OLATHE - IXD   LGT RAIN  76  76 100 NW6       29.99R
OLATHE - OJC   TSTM      75  75 100 S3        29.98R FOG
LAWRENCE       RAIN      75  75 100 E5        29.96F FOG

$$

MOZ001>008-011>017-020>025-030>033-038>040-044>046-053-054-270600-
...NORTHERN AND CENTRAL MISSOURI...

CITY           SKY/WX    TMP DP  RH WIND       PRES   REMARKS
ST. JOSEPH     CLOUDY    76  76 100 CALM      29.96F
MOSBY          CLOUDY    72  72 100 SW5       29.97S
WARRENSBURG    TSTM      70  68  94 N8G28     29.99R
WHITEMAN AFB   TSTM      75  75 100 NW13G39   30.01R FOG
CLINTON        LGT RAIN  81  77  89 SE3       29.96F
SEDALIA        LGT RAIN  79  79 100 E6        29.97F
WARSAW         NOT AVBL
CHILLICOTHE      N/A     78  77  96 S3        29.98S
KIRKSVILLE     CLOUDY    76  73  91 CALM      29.98S

$$

MOZ041-047>049-056>058-063>065-088>090-097-270600-
...EASTERN AND SOUTHERN MISSOURI...

CITY           SKY/WX    TMP DP  RH WIND       PRES   REMARKS
ST. LOUIS INTL CLOUDY    82  75  79 E6        29.95F
SPIRIT OF STL  PTCLDY    81  75  82 CALM      29.93F
COLUMBIA       RAIN      77  73  88 W5        29.98R FOG
JEFFERSON CITY LGT RAIN  82  80  94 NW9       29.96R HX  94
ROLLA          CLOUDY    81  72  74 S7        30.00S
OSAGE BEACH    CLOUDY    83  73  72 SW3       29.99R
SPRINGFIELD    MOCLDY    82  73  74 S8        30.00F
JOPLIN         CLOUDY    86  73  65 S13       29.99S HX  93
WEST PLAINS    CLEAR     80  71  74 SW6       30.03F

$$

IAZ060-094-KSZ022-034>040-054-083-096-NEZ052-066-093-270600-
...KANSAS...SOUTHEAST NEBRASKA AND IOWA...

CITY           SKY/WX    TMP DP  RH WIND       PRES   REMARKS
TOPEKA         CLOUDY    76  76 100 N9        29.96F
MANHATTAN      CLOUDY    76  75  97 NE5       29.96R
EMPORIA        LGT RAIN  77  76  96 NE10      29.95S
CHANUTE        CLOUDY    86  73  65 S16       29.95S HX  93
WICHITA        MOCLDY    85  70  60 S13       29.92R
OMAHA          MOCLDY    72  70  93 CALM      30.02R FOG
LINCOLN        MOCLDY    73  71  93 NE3       30.03S FOG
FALLS CITY     CLOUDY    75  74  96 N3        29.97S
LAMONI         LGT RAIN  76  75  97 N7        29.99S
DES MOINES     CLOUDY    75  73  93 N5        29.98S

$$




USA.gov is the U.S. government's official web portal to all federal, state and local government web resources and services.